| time (UTC) | temp F | wind direction | speed knots | gust knots | rain 1hr in | rain 24hr in | rain mn in | humidity % | barometer mb |
| 20260507144543 | 58 | 222 | 0.9 | 1.7 | 0.00 | 0.00 | 0.00 | 81 | 1017.4 |
| 20260507144541 | 58 | 253 | 0.0 | 1.7 | 0.00 | 0.00 | 0.00 | 81 | 1016.5 |
| 20260507143043 | 58 | 181 | 0.0 | 1.7 | 0.00 | 0.00 | 0.00 | 81 | 1017.2 |
| 20260507143039 | 58 | 255 | 0.0 | 0.0 | 0.00 | 0.00 | 0.00 | 81 | 1016.3 |
| 20260507141612 | 55 | 0 | 0.0 | 1.7 | 0.00 | 0.00 | 0.00 | 87 | 1017.2 |
| 20260507141536 | 55 | 255 | 0.0 | 0.0 | 0.00 | 0.00 | 0.00 | 87 | 1016.3 |
| 20260507140053 | 53 | 0 | 0.0 | 0.0 | 0.00 | 0.00 | 0.00 | 91 | 1017.2 |
| 20260507140038 | 53 | 255 | 0.0 | 0.0 | 0.00 | 0.00 | 0.00 | 91 | 1016.3 |
| 20260507134538 | 51 | 255 | 0.0 | 0.0 | 0.00 | 0.00 | 0.00 | 93 | 1016.2 |
| 20260507134535 | 51 | 0 | 0.0 | 0.0 | 0.00 | 0.00 | 0.00 | 92 | 1017.2 |
| 20260507133035 | 51 | 255 | 0.0 | 0.0 | 0.00 | 0.00 | 0.00 | 92 | 1016.1 |
| 20260507131547 | 50 | 0 | 0.0 | 0.0 | 0.00 | 0.00 | 0.00 | 91 | 1017.2 |
| 20260507131538 | 50 | 255 | 0.0 | 0.0 | 0.00 | 0.00 | 0.00 | 91 | 1016.2 |
| 20260507130041 | 50 | 0 | 0.0 | 1.7 | 0.00 | 0.00 | 0.00 | 91 | 1017.1 |
| 20260507130039 | 50 | 255 | 0.0 | 0.0 | 0.00 | 0.00 | 0.00 | 92 | 1016.0 |
| 20260507124536 | 50 | 0 | 0.0 | 0.0 | 0.00 | 0.00 | 0.00 | 90 | 1016.8 |
| 20260507124532 | 50 | 255 | 0.0 | 0.0 | 0.00 | 0.00 | 0.00 | 91 | 1015.7 |
| 20260507123036 | 51 | 0 | 0.0 | 0.0 | 0.00 | 0.00 | 0.00 | 90 | 1016.8 |
| 20260507123030 | 51 | 255 | 0.0 | 0.0 | 0.00 | 0.00 | 0.00 | 91 | 1015.6 |
| 20260507121544 | 51 | 0 | 0.0 | 0.0 | 0.00 | 0.00 | 0.00 | 90 | 1016.6 |
| 20260507121529 | 51 | 255 | 0.0 | 0.0 | 0.00 | 0.00 | 0.00 | 91 | 1015.4 |
| 20260507120043 | 51 | 0 | 0.0 | 0.0 | 0.00 | 0.00 | 0.00 | 90 | 1016.7 |
| 20260507120028 | 51 | 255 | 0.0 | 0.0 | 0.00 | 0.00 | 0.00 | 90 | 1015.6 |
| 20260507114538 | 51 | 0 | 0.0 | 0.0 | 0.00 | 0.00 | 0.00 | 90 | 1016.7 |
| 20260507114527 | 51 | 255 | 0.0 | 0.0 | 0.00 | 0.00 | 0.00 | 90 | 1015.5 |
| 20260507113040 | 51 | 0 | 0.0 | 0.0 | 0.00 | 0.00 | 0.00 | 89 | 1016.8 |
| 20260507113025 | 51 | 255 | 0.0 | 0.0 | 0.00 | 0.00 | 0.00 | 90 | 1015.6 |
| 20260507111539 | 52 | 0 | 0.0 | 0.0 | 0.00 | 0.00 | 0.00 | 89 | 1016.8 |
| 20260507111526 | 52 | 255 | 0.0 | 0.0 | 0.00 | 0.00 | 0.00 | 89 | 1015.6 |
| 20260507110036 | 52 | 0 | 0.0 | 0.0 | 0.00 | 0.00 | 0.00 | 89 | 1017.0 |
| 20260507110022 | 52 | 255 | 0.0 | 0.0 | 0.00 | 0.00 | 0.00 | 89 | 1015.7 |
| 20260507104536 | 52 | 0 | 0.0 | 0.0 | 0.00 | 0.00 | 0.00 | 88 | 1017.0 |
| 20260507104520 | 52 | 255 | 0.0 | 0.0 | 0.00 | 0.00 | 0.00 | 89 | 1015.8 |
| 20260507103040 | 52 | 0 | 0.0 | 0.0 | 0.00 | 0.00 | 0.00 | 88 | 1017.1 |
| 20260507103027 | 52 | 255 | 0.0 | 0.0 | 0.00 | 0.00 | 0.00 | 89 | 1015.9 |
| 20260507101554 | 53 | 0 | 0.0 | 0.0 | 0.00 | 0.00 | 0.00 | 88 | 1017.2 |
| 20260507101517 | 53 | 255 | 0.0 | 0.0 | 0.00 | 0.00 | 0.00 | 88 | 1016.0 |
| 20260507100038 | 53 | 0 | 0.0 | 0.0 | 0.00 | 0.00 | 0.00 | 88 | 1017.2 |
| 20260507100021 | 53 | 255 | 0.0 | 0.0 | 0.00 | 0.00 | 0.00 | 88 | 1015.9 |
| 20260507094554 | 53 | 0 | 0.0 | 0.0 | 0.00 | 0.00 | 0.00 | 87 | 1017.3 |
| 20260507094513 | 53 | 255 | 0.0 | 0.0 | 0.00 | 0.00 | 0.00 | 88 | 1016.1 |
| 20260507093043 | 53 | 0 | 0.0 | 0.0 | 0.00 | 0.00 | 0.00 | 87 | 1017.6 |
| 20260507093012 | 53 | 255 | 0.0 | 0.0 | 0.00 | 0.00 | 0.00 | 88 | 1016.3 |
| 20260507091554 | 54 | 0 | 0.0 | 0.0 | 0.00 | 0.00 | 0.00 | 87 | 1017.6 |
| 20260507091510 | 54 | 255 | 0.0 | 0.0 | 0.00 | 0.00 | 0.00 | 87 | 1016.3 |
| 20260507090043 | 54 | 0 | 0.0 | 0.0 | 0.00 | 0.00 | 0.00 | 86 | 1017.6 |
| 20260507090008 | 54 | 255 | 0.0 | 0.0 | 0.00 | 0.00 | 0.00 | 87 | 1016.3 |
| 20260507084536 | 54 | 0 | 0.0 | 0.0 | 0.00 | 0.00 | 0.00 | 86 | 1017.7 |
| 20260507084505 | 54 | 255 | 0.0 | 0.0 | 0.00 | 0.00 | 0.00 | 86 | 1016.5 |
| 20260507083044 | 55 | 0 | 0.0 | 1.7 | 0.00 | 0.00 | 0.00 | 86 | 1017.9 |
| 20260507083004 | 55 | 255 | 0.0 | 0.0 | 0.00 | 0.00 | 0.00 | 86 | 1016.5 |
| 20260507081608 | 55 | 255 | 0.0 | 0.0 | 0.00 | 0.00 | 0.00 | 86 | 1016.6 |
| 20260507081549 | 55 | 0 | 0.0 | 0.0 | 0.00 | 0.00 | 0.00 | 85 | 1017.9 |
| 20260507080113 | 55 | 255 | 0.0 | 0.0 | 0.00 | 0.00 | 0.00 | 85 | 1016.8 |
| 20260507080042 | 55 | 0 | 0.0 | 0.0 | 0.00 | 0.00 | 0.00 | 85 | 1018.2 |
| 20260507074552 | 55 | 255 | 0.0 | 0.0 | 0.00 | 0.00 | 0.00 | 84 | 1016.9 |
| 20260507074539 | 55 | 0 | 0.0 | 0.0 | 0.00 | 0.00 | 0.00 | 84 | 1018.1 |
| 20260507073048 | 55 | 255 | 0.0 | 0.0 | 0.00 | 0.00 | 0.00 | 84 | 1016.9 |
| 20260507073044 | 55 | 0 | 0.0 | 0.0 | 0.00 | 0.00 | 0.00 | 83 | 1018.3 |
| 20260507071601 | 56 | 255 | 0.0 | 0.0 | 0.00 | 0.00 | 0.00 | 83 | 1017.0 |
| 20260507071543 | 56 | 0 | 0.0 | 0.0 | 0.00 | 0.00 | 0.00 | 82 | 1018.3 |
| 20260507070114 | 56 | 0 | 0.0 | 1.7 | 0.00 | 0.00 | 0.00 | 82 | 1018.3 |
| 20260507070039 | 56 | 255 | 0.0 | 0.0 | 0.00 | 0.00 | 0.00 | 82 | 1016.9 |
| 20260507064546 | 57 | 0 | 0.0 | 0.0 | 0.00 | 0.00 | 0.00 | 81 | 1018.2 |
| 20260507064538 | 57 | 255 | 0.0 | 0.0 | 0.00 | 0.00 | 0.00 | 82 | 1017.0 |
| 20260507063044 | 57 | 255 | 0.0 | 0.0 | 0.00 | 0.00 | 0.00 | 81 | 1017.1 |
| 20260507063042 | 57 | 0 | 0.0 | 0.0 | 0.00 | 0.00 | 0.00 | 80 | 1018.4 |
| 20260507061540 | 58 | 0 | 0.0 | 0.0 | 0.00 | 0.00 | 0.00 | 80 | 1018.5 |
| 20260507060038 | 58 | 255 | 0.0 | 0.0 | 0.00 | 0.00 | 0.00 | 81 | 1017.0 |
| 20260507060036 | 58 | 0 | 0.0 | 0.0 | 0.00 | 0.00 | 0.00 | 81 | 1018.3 |
| 20260507054536 | 59 | 255 | 0.0 | 0.0 | 0.00 | 0.00 | 0.00 | 81 | 1017.0 |
| 20260507053105 | 59 | 255 | 0.0 | 0.0 | 0.00 | 0.00 | 0.00 | 81 | 1017.0 |
| 20260507053043 | 59 | 0 | 0.0 | 1.7 | 0.00 | 0.00 | 0.00 | 80 | 1018.5 |
| 20260507051542 | 60 | 255 | 0.0 | 0.9 | 0.00 | 0.00 | 0.00 | 82 | 1017.0 |
| 20260507051540 | 60 | 0 | 0.0 | 1.7 | 0.00 | 0.00 | 0.00 | 82 | 1018.4 |
| 20260507050043 | 60 | 0 | 0.0 | 1.7 | 0.00 | 0.00 | 0.00 | 82 | 1018.3 |
| 20260507050037 | 60 | 255 | 0.0 | 0.9 | 0.00 | 0.00 | 0.00 | 82 | 1017.0 |
| 20260507044546 | 60 | 0 | 0.0 | 2.6 | 0.00 | 0.00 | 0.00 | 81 | 1018.3 |
| 20260507044535 | 60 | 255 | 0.0 | 3.5 | 0.00 | 0.00 | 0.00 | 81 | 1016.9 |
| 20260507043044 | 61 | 259 | 0.0 | 1.7 | 0.00 | 0.00 | 0.00 | 79 | 1018.2 |
| 20260507043036 | 61 | 235 | 0.0 | 2.6 | 0.00 | 0.00 | 0.00 | 79 | 1016.8 |
| 20260507041535 | 61 | 314 | 0.0 | 1.7 | 0.00 | 0.00 | 0.00 | 76 | 1018.2 |
| 20260507041533 | 61 | 235 | 0.0 | 2.6 | 0.00 | 0.00 | 0.00 | 77 | 1016.7 |
| 20260507040048 | 62 | 271 | 0.0 | 2.6 | 0.00 | 0.00 | 0.00 | 75 | 1018.2 |
| 20260507040032 | 62 | 240 | 0.0 | 4.3 | 0.00 | 0.00 | 0.00 | 75 | 1016.7 |
| 20260507034546 | 62 | 286 | 0.0 | 1.7 | 0.00 | 0.00 | 0.00 | 73 | 1018.0 |
| 20260507034537 | 62 | 216 | 0.0 | 2.6 | 0.00 | 0.00 | 0.00 | 73 | 1016.6 |
| 20260507033040 | 62 | 213 | 0.0 | 1.7 | 0.00 | 0.00 | 0.00 | 71 | 1016.4 |
| 20260507033037 | 62 | 322 | 0.0 | 1.7 | 0.00 | 0.00 | 0.00 | 71 | 1017.7 |
| 20260507031544 | 63 | 273 | 0.0 | 1.7 | 0.00 | 0.00 | 0.00 | 69 | 1017.7 |
| 20260507031531 | 63 | 213 | 0.0 | 3.5 | 0.00 | 0.00 | 0.00 | 70 | 1016.4 |
| 20260507030046 | 63 | 287 | 0.0 | 3.5 | 0.00 | 0.00 | 0.00 | 67 | 1017.6 |
| 20260507030031 | 63 | 199 | 0.0 | 0.9 | 0.00 | 0.00 | 0.00 | 68 | 1016.3 |
| 20260507024540 | 64 | 248 | 0.0 | 3.5 | 0.00 | 0.00 | 0.00 | 66 | 1017.5 |
| 20260507024533 | 64 | 222 | 0.0 | 2.6 | 0.00 | 0.00 | 0.00 | 66 | 1016.2 |
| 20260507023036 | 64 | 291 | 1.7 | 4.3 | 0.00 | 0.00 | 0.00 | 65 | 1017.4 |
| 20260507023034 | 64 | 202 | 0.0 | 0.0 | 0.00 | 0.00 | 0.00 | 65 | 1016.0 |
| 20260507021541 | 65 | 270 | 0.9 | 4.3 | 0.00 | 0.00 | 0.00 | 63 | 1017.3 |
| 20260507021528 | 65 | 259 | 0.0 | 0.0 | 0.00 | 0.00 | 0.00 | 64 | 1016.0 |
| 20260507020050 | 66 | 218 | 2.6 | 5.2 | 0.00 | 0.00 | 0.00 | 61 | 1017.1 |
| 20260507020029 | 66 | 219 | 0.0 | 0.0 | 0.00 | 0.00 | 0.00 | 62 | 1015.8 |
| 20260507014552 | 67 | 225 | 1.7 | 4.3 | 0.00 | 0.00 | 0.00 | 59 | 1017.1 |
| 20260507014528 | 67 | 215 | 0.0 | 0.0 | 0.00 | 0.00 | 0.00 | 60 | 1015.8 |
| 20260507013038 | 68 | 225 | 1.7 | 4.3 | 0.00 | 0.00 | 0.00 | 58 | 1017.1 |
| 20260507013027 | 68 | 201 | 0.0 | 0.0 | 0.00 | 0.00 | 0.00 | 59 | 1015.8 |
| 20260507011536 | 68 | 279 | 2.6 | 7.0 | 0.00 | 0.00 | 0.00 | 59 | 1016.8 |
| 20260507011533 | 68 | 214 | 0.0 | 0.0 | 0.00 | 0.00 | 0.00 | 59 | 1015.7 |
| 20260507010036 | 69 | 211 | 2.6 | 7.0 | 0.00 | 0.00 | 0.00 | 59 | 1016.9 |
| 20260507010027 | 69 | 175 | 0.0 | 0.0 | 0.00 | 0.00 | 0.00 | 59 | 1015.6 |
| 20260507004544 | 69 | 203 | 2.6 | 7.8 | 0.00 | 0.00 | 0.00 | 59 | 1016.8 |
| 20260507004535 | 69 | 179 | 0.0 | 0.0 | 0.00 | 0.00 | 0.00 | 59 | 1015.6 |
| 20260507003043 | 70 | 290 | 2.6 | 7.0 | 0.00 | 0.00 | 0.00 | 58 | 1016.8 |
| 20260507003025 | 70 | 204 | 0.0 | 0.0 | 0.00 | 0.00 | 0.00 | 58 | 1015.5 |
| 20260507001540 | 70 | 280 | 2.6 | 7.8 | 0.00 | 0.00 | 0.00 | 58 | 1016.5 |
| 20260507001524 | 70 | 286 | 0.0 | 0.0 | 0.00 | 0.00 | 0.00 | 58 | 1015.4 |
| 20260507000039 | 70 | 226 | 2.6 | 7.0 | 0.00 | 0.00 | 0.00 | 57 | 1016.5 |
| 20260507000024 | 70 | 153 | 0.0 | 0.0 | 0.00 | 0.00 | 0.00 | 58 | 1015.2 |
| 20260506234536 | 70 | 205 | 3.5 | 8.7 | 0.00 | 0.00 | 0.00 | 58 | 1016.4 |
| 20260506234523 | 70 | 194 | 0.0 | 0.0 | 0.00 | 0.00 | 0.00 | 59 | 1015.2 |
| 20260506233036 | 71 | 310 | 3.5 | 7.0 | 0.00 | 0.00 | 0.00 | 58 | 1016.3 |
| 20260506233024 | 71 | 190 | 0.0 | 0.0 | 0.00 | 0.00 | 0.00 | 58 | 1015.3 |
| 20260506231540 | 71 | 250 | 3.5 | 7.8 | 0.00 | 0.00 | 0.00 | 58 | 1016.5 |
| 20260506231522 | 71 | 181 | 0.0 | 0.0 | 0.00 | 0.00 | 0.00 | 58 | 1015.3 |
| 20260506230043 | 70 | 260 | 5.2 | 9.6 | 0.00 | 0.00 | 0.00 | 59 | 1016.5 |
| 20260506230021 | 70 | 186 | 0.0 | 0.0 | 0.00 | 0.00 | 0.00 | 59 | 1015.3 |
| 20260506224542 | 71 | 181 | 3.5 | 9.6 | 0.00 | 0.00 | 0.00 | 57 | 1016.7 |
| 20260506224520 | 71 | 200 | 0.0 | 0.0 | 0.00 | 0.00 | 0.00 | 57 | 1015.5 |
| 20260506223042 | 71 | 291 | 2.6 | 8.7 | 0.00 | 0.00 | 0.00 | 58 | 1016.7 |
| 20260506223018 | 71 | 223 | 0.0 | 0.0 | 0.00 | 0.00 | 0.00 | 59 | 1015.7 |
| 20260506221544 | 71 | 331 | 4.3 | 11.3 | 0.00 | 0.00 | 0.00 | 57 | 1016.7 |
| 20260506221517 | 71 | 210 | 0.0 | 0.0 | 0.00 | 0.00 | 0.00 | 58 | 1015.6 |
| 20260506220044 | 71 | 272 | 5.2 | 12.2 | 0.00 | 0.00 | 0.00 | 57 | 1016.7 |
| 20260506220030 | 71 | 272 | 0.0 | 0.0 | 0.00 | 0.00 | 0.00 | 58 | 1015.8 |
| 20260506214538 | 71 | 196 | 3.5 | 9.6 | 0.00 | 0.00 | 0.00 | 58 | 1016.8 |
| 20260506214515 | 71 | 173 | 0.0 | 0.0 | 0.00 | 0.00 | 0.00 | 58 | 1015.8 |
| 20260506213036 | 72 | 232 | 3.5 | 10.4 | 0.00 | 0.00 | 0.00 | 57 | 1016.8 |
| 20260506213014 | 72 | 199 | 0.0 | 0.0 | 0.00 | 0.00 | 0.00 | 57 | 1016.0 |
| 20260506211543 | 71 | 345 | 3.5 | 11.3 | 0.00 | 0.00 | 0.00 | 56 | 1016.8 |
| 20260506211512 | 71 | 316 | 0.0 | 0.0 | 0.00 | 0.00 | 0.00 | 57 | 1016.1 |
| 20260506210049 | 72 | 275 | 4.3 | 10.4 | 0.00 | 0.00 | 0.00 | 56 | 1017.0 |
| 20260506210013 | 72 | 228 | 0.0 | 0.0 | 0.00 | 0.00 | 0.00 | 56 | 1016.2 |
| 20260506204540 | 72 | 228 | 4.3 | 12.2 | 0.00 | 0.00 | 0.00 | 55 | 1017.2 |
| 20260506204511 | 72 | 217 | 0.0 | 0.0 | 0.00 | 0.00 | 0.00 | 56 | 1016.3 |
| 20260506203040 | 72 | 251 | 3.5 | 9.6 | 0.00 | 0.00 | 0.00 | 54 | 1017.2 |
| 20260506203018 | 72 | 197 | 0.0 | 0.0 | 0.00 | 0.00 | 0.00 | 54 | 1016.4 |
| 20260506201544 | 72 | 319 | 3.5 | 9.6 | 0.00 | 0.00 | 0.00 | 54 | 1017.1 |
| 20260506201508 | 72 | 240 | 0.0 | 0.0 | 0.00 | 0.00 | 0.00 | 54 | 1016.5 |
| 20260506200043 | 73 | 263 | 3.5 | 10.4 | 0.00 | 0.00 | 0.00 | 51 | 1017.3 |
| 20260506200006 | 73 | 225 | 0.0 | 0.0 | 0.00 | 0.00 | 0.00 | 52 | 1016.5 |
| 20260506194550 | 73 | 237 | 4.3 | 8.7 | 0.00 | 0.00 | 0.00 | 51 | 1017.4 |
| 20260506194505 | 73 | 231 | 0.0 | 0.0 | 0.00 | 0.00 | 0.00 | 51 | 1016.6 |
| 20260506193045 | 73 | 231 | 4.3 | 12.2 | 0.00 | 0.00 | 0.00 | 48 | 1017.6 |
| 20260506193003 | 73 | 188 | 0.0 | 0.0 | 0.00 | 0.00 | 0.00 | 49 | 1016.8 |
| 20260506191609 | 73 | 271 | 0.0 | 0.0 | 0.00 | 0.00 | 0.00 | 50 | 1017.0 |
| 20260506191541 | 73 | 327 | 2.6 | 7.8 | 0.00 | 0.00 | 0.00 | 49 | 1017.7 |
| 20260506190059 | 72 | 201 | 0.0 | 0.0 | 0.00 | 0.00 | 0.00 | 49 | 1017.1 |
| 20260506190036 | 72 | 219 | 3.5 | 9.6 | 0.00 | 0.00 | 0.00 | 48 | 1017.8 |
| 20260506184556 | 71 | 215 | 0.0 | 6.1 | 0.00 | 0.00 | 0.00 | 52 | 1017.4 |
| 20260506184548 | 71 | 221 | 1.7 | 6.1 | 0.00 | 0.00 | 0.00 | 51 | 1018.0 |
| 20260506183057 | 70 | 171 | 4.3 | 7.8 | 0.00 | 0.00 | 0.00 | 55 | 1017.5 |
| 20260506183042 | 70 | 234 | 2.6 | 5.2 | 0.00 | 0.00 | 0.00 | 54 | 1018.2 |
| 20260506181556 | 68 | 188 | 4.3 | 7.8 | 0.00 | 0.00 | 0.00 | 57 | 1017.7 |
| 20260506181542 | 68 | 230 | 2.6 | 7.0 | 0.00 | 0.00 | 0.00 | 57 | 1018.3 |
| 20260506180105 | 68 | 190 | 1.7 | 7.8 | 0.00 | 0.00 | 0.00 | 59 | 1017.8 |
| 20260506180040 | 68 | 271 | 2.6 | 6.1 | 0.00 | 0.00 | 0.00 | 59 | 1018.6 |
| 20260506174543 | 66 | 232 | 0.9 | 4.3 | 0.00 | 0.00 | 0.00 | 59 | 1018.7 |
| 20260506173104 | 65 | 338 | 0.9 | 6.1 | 0.00 | 0.00 | 0.00 | 61 | 1018.8 |
| 20260506173047 | 65 | 269 | 0.9 | 7.0 | 0.00 | 0.00 | 0.00 | 62 | 1018.2 |
| 20260506171553 | 65 | 265 | 2.6 | 6.1 | 0.00 | 0.00 | 0.00 | 62 | 1019.0 |
| 20260506171539 | 65 | 232 | 1.7 | 6.1 | 0.00 | 0.00 | 0.00 | 63 | 1018.4 |
| 20260506170041 | 64 | 267 | 1.7 | 4.3 | 0.00 | 0.00 | 0.00 | 63 | 1019.0 |
| 20260506170035 | 64 | 254 | 0.9 | 7.8 | 0.00 | 0.00 | 0.00 | 63 | 1018.4 |
| 20260506164536 | 63 | 234 | 1.7 | 4.3 | 0.00 | 0.00 | 0.00 | 65 | 1019.1 |
| 20260506164533 | 63 | 235 | 1.7 | 4.3 | 0.00 | 0.00 | 0.00 | 65 | 1018.5 |
| 20260506163049 | 62 | 219 | 1.7 | 4.3 | 0.00 | 0.00 | 0.00 | 67 | 1019.1 |
| 20260506163032 | 62 | 178 | 1.7 | 6.1 | 0.00 | 0.00 | 0.00 | 67 | 1018.5 |
| 20260506161545 | 61 | 257 | 1.7 | 3.5 | 0.00 | 0.00 | 0.00 | 67 | 1019.1 |
| 20260506161533 | 61 | 225 | 2.6 | 5.2 | 0.00 | 0.00 | 0.00 | 67 | 1018.4 |
| 20260506160044 | 61 | 290 | 0.9 | 3.5 | 0.00 | 0.00 | 0.00 | 69 | 1019.1 |
| 20260506160027 | 61 | 257 | 0.9 | 3.5 | 0.00 | 0.00 | 0.00 | 70 | 1018.5 |
| 20260506154547 | 61 | 215 | 0.9 | 1.7 | 0.00 | 0.00 | 0.00 | 68 | 1019.1 |
| 20260506154527 | 61 | 193 | 0.0 | 2.6 | 0.00 | 0.00 | 0.00 | 69 | 1018.5 |
| 20260506153039 | 61 | 244 | 0.0 | 1.7 | 0.00 | 0.00 | 0.00 | 70 | 1019.2 |
| 20260506153025 | 61 | 192 | 0.0 | 0.0 | 0.00 | 0.00 | 0.00 | 70 | 1018.6 |
| 20260506151535 | 60 | 138 | 0.0 | 1.7 | 0.00 | 0.00 | 0.00 | 72 | 1019.2 |
| 20260506151522 | 60 | 192 | 0.0 | 0.0 | 0.00 | 0.00 | 0.00 | 72 | 1018.5 |
| 20260506150043 | 59 | 0 | 0.0 | 2.6 | 0.00 | 0.00 | 0.00 | 74 | 1019.2 |
| 20260506150018 | 59 | 192 | 0.0 | 0.0 | 0.00 | 0.00 | 0.00 | 75 | 1018.6 |